Regional Weather Roundup
Issued by NWS Lake Charles, LA

Home | Current Version | Previous Version | Text Only | Print | Product List | Glossary On
Versions: 1 2 3 4 5 6 7 8 9 10 11 12 13 14 15 16 17 18 19 20 21 22 23 24 25 26 27
000
ASUS44 KLCH 290110
RWRLCH
REGIONAL WEATHER ROUNDUP
NATIONAL WEATHER SERVICE LAKE CHARLES LA
800 PM CDT SAT MAY 28 2016

Note: "fair" indicates few or no clouds below 12,000 feet with no
significant weather and/or obstructions to visibility.


ACROSS SOUTHEAST TEXAS

CITY           SKY/WX    TMP DP  RH WIND       PRES   REMARKS
BEAUMONT       CLEAR     79  71  76 S6        29.98S
BEAUMONT CITY  FAIR      81  70  67 SE5       29.99S
ORANGE         CLEAR     81  68  65 S3        30.00S
JASPER         CLEAR     81  71  70 CALM      30.01S
$$

ACROSS CENTRAL LOUISIANA

CITY           SKY/WX    TMP DP  RH WIND       PRES   REMARKS
LEESVILLE      CLEAR     76  69  78 SE3       30.00S
FULLERTON      FAIR      79  71  76 CALM      29.99R
ALEXANDRIA INT PTCLDY    80  73  79 S6        30.00R
ESLER FIELD    CLEAR     76  72  87 CALM      30.02R
DERIDDER       FAIR      74  70  86 CALM      30.02S
OAKDALE        CLEAR     78  76  92 CALM      30.01R
OPELOUSAS      FAIR      80  73  78 SE6       30.02R
$$

ACROSS SOUTHWEST AND SOUTH CENTRAL LOUISIANA

CITY           SKY/WX    TMP DP  RH WIND       PRES   REMARKS
SULPHUR        CLEAR     81  70  69 SE3       30.01R
LAKE CHARLES   CLEAR     80  72  76 S5        30.00R
CHENNAULT INT  NOT AVBL
CAMERON PHI    CLEAR     81  73  78 S7        30.02S
DEQUINCY       FAIR      81  70  71 CALM      30.00R
JENNINGS       FAIR      81  72  74 CALM      30.01R
LAFAYETTE      CLOUDY    81  72  74 S3        30.02R
NEW IBERIA     CLOUDY    79  71  76 S5        30.03R
ABBEVILLE      FAIR      78  73  85 SE6       30.02S
PATTERSON      PTCLDY    76  69  79 NE5       30.05S
SALT POINT       N/A     79  73  82 CALM      30.02
$$

SELECTED SITES ACROSS THE REGION

CITY           SKY/WX    TMP DP  RH WIND       PRES   REMARKS
HOUSTON BUSH   PTCLDY    80  73  79 SE16      29.96R
HOUSTON HOBBY  PTCLDY    82  71  69 SE8       29.96R
GALVESTON      PTCLDY    80  74  81 E13       30.00R
COLLEGE STAT   CLEAR     83  73  72 SE7       29.94R
CONROE         CLEAR     82  71  69 E6        29.96R
HUNTSVILLE     PTCLDY    86  69  56 SE3       29.96R
LUFKIN         CLEAR     82  73  74 SE5       29.97R
SHREVEPORT     CLEAR     81  71  71 SE5       29.98R
MONROE         CLEAR     79  73  82 SE3       30.02R
NATCHEZ MS     CLEAR     79  70  73 CALM      30.04R
BATON ROUGE    MOCLDY    81  70  69 E9        30.04R
N.O. INTL ARPT CLOUDY    76  68  76 SE8       30.05R
SLIDELL        CLEAR     76  70  82 SE6       30.05R
$$

MARINE REPORTS

STATION/POSITION TIME  SKY/WX   TEMP    WIND        PRES    VSBY
                                AIR SEA DIR/SP/G
                 (UTC)          (F)     (DEG/KT/KT) (MB)    (MI)
BUOY 30 S HIGH I 0050            81 84  100/ 10/ 12 1015.1R
WVE H/P(F/S)=  3/ 7

SEA RIM ST PARK  0100            80     130/  6/  7 1016.0S
PORT ARTHUR      0000                   130/  5/  8   N/A
SABINE PASS N    0000                   140/  7/ 10   N/A
TEXAS POINT      NOT AVBL
CALCASIEU PASS   0000                   170/  7/  9   N/A
LK CHARLES BEACH 0000               78              1015.9
MARSH ISLAND     0000            82                   N/A
FRESH WATER LOCK 0000                   150/  5/  5   N/A
AMERADA PASS     0000                   120/  2/  3   N/A
$$




USA.gov is the U.S. government's official web portal to all federal, state and local government web resources and services.